Location: Newark
(13.6797°N, 8.5297°E)
Time: 10:59:31
(UTC+00:00)

SR - Pass Details

Date: 29 January 2020
Orbit: 575 x 880 km, 66.7° (Epoch: 25 February)

Event Time Altitude Azimuth Distance (km) Brightness Sun altitude
Rises 20:34:38 0° 238° (WSW) 3,305 ? -45.6°
Reaches altitude 10° 20:37:53 10° 258° (WSW) 2,426 ? -46.3°
Enters shadow 20:38:16 11° 261° (W) 2,346 ? -46.4°
Maximum altitude 20:41:26 17° 297° (WNW) 2,022 - -47.2°
Drops below altitude 10° 20:45:05 10° 336° (NNW) 2,506 - -48.0°
Sets 20:48:33 0° 356° (N) 3,463 - -48.9°
